Погода в Иковке

Россия / Курганская область     55°36′26″N   64°56′31″E
темп.,
°C
ветер,
м/с
пор.,
м/с
влажн.,
%
обл.,
%
осадки,
мм/ч
давл.,
гПа
погр.,
м
16 мая, вс
вс1623:00+21зсз4124484 0.0 1018244
02:00+20зсз3651100 0.1 101884
05:00+18сз375846 0.1 1019118
08:00+24зсз4743100 0.0 1019376
11:00+30з573318 0.0 10191236
14:00+33зсз61021100 0.0 10183508
17:00+32зсз681835 0.0 10183923
20:00+26з33315 0.0 101742
17 мая, пн
пн1723:00+24з515385 0.0 1017419
02:00+22з4124186 0.0 1017279
05:00+19з49545 0.0 1018183
08:00+25з47405 0.0 1019360
11:00+30з57275 0.0 10182194
14:00+32з682129 0.0 10163769
17:00+31з682298 0.0 10143590
20:00+23зюз411425 0.5 1015256
18 мая, вт
вт1823:00+19з365758 0.5 101593
02:00+17зсз2367100 0.4 101546
05:00+17зюз3771100 0.4 1014144
08:00+22зсз5955100 0.0 1013473
11:00+26сз584089 0.0 10131707
14:00+28ссз672950 0.0 10123220
17:00+22с795084 0.0 10141035
20:00+18ссв710585 0.3 10161220
19 мая, ср
ср1923:00+12ссв6117782 0.3 1020817
02:00+11ссв511680 0.0 1021805
05:00+9ссв411780 0.0 1023599
08:00+13св58533 0.0 10241030
11:00+17св573413 0.0 10241517
14:00+20св45305 0.0 10241794
17:00+20св443013 0.0 10231933
20:00+16всв22440 0.0 102316
20 мая, чт
чт2023:00+12ю11546 0.0 102410
02:00+11зюз225646 0.0 102517
05:00+11зюз34605 0.0 102468
08:00+18з36415 0.0 1024509
11:00+22з45315 0.0 10231581
14:00+25з55265 0.0 10211805
17:00+25з56260 0.0 10201798
20:00+20зюз35410 0.0 101981